This is the latest recevied weather packets stored in our database for station/object 4S6DRJ-13. If no packets are shown the sender has not sent any weather packets the latest 10 day(s).
| Time | Temp. | Humidity | Pressure | Rain* | Wind** | Luminosity | Snow |
|---|---|---|---|---|---|---|---|
| 1788153346 | 31.11° C | 69% | 1009.6 hPa | 0 mm | 2.68 m/s, 346° | 1113 W/m² | - |
| 1788153285 | 31.11° C | 69% | 1009.7 hPa | 0 mm | 0.89 m/s, 286° | 310 W/m² | - |
| 1788153224 | 31.11° C | 70% | 1009.4 hPa | 0 mm | 0.45 m/s, 266° | 689 W/m² | - |
| 1788153163 | 31.11° C | 69% | 1009.4 hPa | 0 mm | 0.89 m/s, 301° | 1104 W/m² | - |
| 1788153103 | 31.11° C | 69% | 1009.5 hPa | 0 mm | 2.24 m/s, 294° | 1101 W/m² | - |
| 1788153055 | 30.56° C | 69% | 1009.6 hPa | 0 mm | 2.24 m/s, 225° | 321 W/m² | - |
| 1788152980 | 30.56° C | 70% | 1009.3 hPa | 0 mm | 0 m/s | 911 W/m² | - |
| 1788152919 | 30.56° C | 69% | 1009.6 hPa | 0 mm | 2.68 m/s, 228° | 1102 W/m² | - |
| 1788152859 | 31.11° C | 68% | 1009.3 hPa | 0 mm | 2.24 m/s, 272° | 693 W/m² | - |
| 1788152797 | 31.11° C | 69% | 1009.4 hPa | 0 mm | 2.68 m/s, 1° | 1113 W/m² | - |
| 1788152737 | 31.11° C | 69% | 1009.3 hPa | 0 mm | 1.34 m/s, 232° | 1112 W/m² | - |
| 1788152675 | 31.11° C | 69% | 1009.5 hPa | 0 mm | 3.58 m/s, 328° | 1107 W/m² | - |
| 1788152614 | 31.11° C | 68% | 1009.5 hPa | 0 mm | 2.24 m/s, 349° | 1118 W/m² | - |
| 1788152554 | 31.11° C | 68% | 1009.6 hPa | 0 mm | 2.68 m/s, 340° | 1116 W/m² | - |
| 1788152492 | 31.11° C | 70% | 1009.6 hPa | 0 mm | 1.34 m/s, 237° | 1115 W/m² | - |
| 1788152431 | 31.11° C | 69% | 1009.5 hPa | 0 mm | 4.02 m/s, 315° | 1117 W/m² | - |
| 1788152370 | 31.11° C | 70% | 1009.7 hPa | 0 mm | 1.79 m/s, 238° | 601 W/m² | - |
| 1788152309 | 30.56° C | 71% | 1009.7 hPa | 0 mm | 2.68 m/s, 274° | 1116 W/m² | - |
| 1788152248 | 30.56° C | 71% | 1009.6 hPa | 0 mm | 1.34 m/s, 314° | 521 W/m² | - |
| 1788152188 | 30.56° C | 71% | 1009.5 hPa | 0 mm | 2.24 m/s, 325° | 1112 W/m² | - |
| 1788152126 | 30.56° C | 70% | 1009.7 hPa | 0 mm | 2.24 m/s, 302° | 1113 W/m² | - |
| 1788152065 | 30.56° C | 70% | 1009.8 hPa | 0 mm | 2.68 m/s, 331° | 1118 W/m² | - |
| 1788152004 | 31.11° C | 71% | 1009.7 hPa | 0 mm | 1.79 m/s, 295° | 447 W/m² | - |
| 1788151943 | 31.11° C | 70% | 1009.8 hPa | 0 mm | 1.34 m/s, 279° | 1103 W/m² | - |
| 1788151883 | 31.11° C | 69% | 1009.5 hPa | 0 mm | 1.34 m/s, 297° | 374 W/m² | - |
* Rain latest hour (hover to see other rain measurements)
** Current wind speed in m/s (hover to see current wind gust speed)